Weather in Maracay

Venezuela     10°14′34″N   67°35′06″W
temp.,
°C
wind,
m/s
gust,
m/s
humid.,
%
clouds,
%
prec.,
mm/h
press.,
hPa
HPBL,
m
18 may, tue
tue1823:00+23e117062 0.2 101575
02:00+23e127451 0.4 101497
05:00+21ene118146 0.1 101421
08:00+24se137389 0.2 1015385
11:00+28sse345439 0.8 10151627
14:00+27se346333 4.3 10131039
17:00+26s2364100 2.8 10111035
20:00+22ese1185100 6.9 101460
19 may, wed
wed1923:00+22e128875 0.1 101584
02:00+21e118597 0.2 101479
05:00+20ese118790 0.5 101428
08:00+22se1383100 0.5 1016343
11:00+27sse355967 0.0 10151388
14:00+29sse454814 0.1 10122000
17:00+27s445557 0.1 10111365
20:00+23e117140 0.1 101375
20 may, thu
thu2023:00+22ene117451 0.0 101440
02:00+21e117665 0.0 101356
05:00+20e128153 0.0 101471
08:00+23se23715 0.0 1015365
11:00+28sse355126 0.0 10141769
14:00+29sse444830 0.0 10121978
17:00+28sse44496 0.0 10101781
20:00+23ne11705 0.1 101299
21 may, fri
fri2123:00+22e12735 0.0 101469
02:00+21e22775 0.0 101362
05:00+20e11795 0.0 101438
08:00+24se246950 0.0 1014371
11:00+28sse3552100 0.0 10141733
14:00+28sse4553100 0.4 10121767
17:00+28se235523 0.3 10111409
20:00+23ene117332 0.5 101254
22 may, sat
sat2223:00+22ene22765 0.0 101458
02:00+21ene127916 0.0 101354
05:00+21ene12835 0.0 101348
08:00+24se237290 0.0 1014410
11:00+29se355081 0.0 10141724
14:00+30se444663 0.1 10111950
17:00+27sse2458100 0.1 1010854
20:00+24ne1174100 0.2 101286